User: anonymous   Login
Location: Unspecified
(0.0000°N, 0.0000°E)
Time: 06:10:39
(UTC+00:00)
Language:

MUNIN - Orbit

View from above orbital plane
View from above orbital plane
View from above satellite
View from above satellite

Ground track
Ground track

The orbit data is extracted from the following two-line orbital elements,

1 26621U 00075C   17296.47164414 -.00000506 +00000-0 -45368-3 0  9997
2 26621 095.3941 290.5348 0714232 106.7484 261.3209 13.04130978805114
Epoch (UTC): 23 October 2017 11:19:10
Eccentricity: 0.0714232
inclination: 95.3941°
perigee height: 701 km
apogee height: 1790 km
right ascension of ascending node: 290.5348°
argument of perigee: 106.7484°
revolutions per day: 13.04130978
mean anomaly at epoch: 261.3209°
orbit number at epoch: 80511

The dashed part of the orbit path shows where the satellite is in the earth's shadow,  

DLR